Location: Tauranga
(37.6860°S, 176.1670°E)
Time: 03:13:39
(UTC+13:00)

MetOp-B - Pass Details

Date: 24 January 2019
Orbit: 819 x 821 km, 98.7° (Epoch: 14 October)

Event Time Altitude Azimuth Distance (km) Brightness Sun altitude
Rises 23:16:07 0° 170° (S) 3,390 8.0 -25.3°
Reaches altitude 10° 23:18:30 10° 171° (S) 2,450 7.2 -25.5°
Maximum altitude 23:23:54 72° 254° (WSW) 871 4.3 -26.1°
Enters shadow 23:25:09 52° 319° (NW) 1,018 4.4 -26.2°
